| time (UTC) | temp F | wind direction | speed MPH | gust MPH | rain 1hr in | rain 24hr in | rain mn in | humidity % | barometer mb |
| 20260505061604 | 53 | 169 | 0.0 | 2.0 | 0.00 | 0.00 | 0.00 | 67 | 1007.8 |
| 20260505061105 | 52 | 36 | 0.0 | 2.0 | 0.00 | 0.00 | 0.00 | 69 | 1007.7 |
| 20260505054104 | 54 | 9 | 0.0 | 2.0 | 0.00 | 0.00 | 0.00 | 67 | 1007.7 |
| 20260505053605 | 52 | 11 | 0.0 | 1.0 | 0.00 | 0.00 | 0.00 | 70 | 1007.6 |
| 20260505053105 | 51 | 19 | 0.0 | 0.0 | 0.00 | 0.00 | 0.00 | 72 | 1007.7 |
| 20260505052604 | 51 | 19 | 0.0 | 0.0 | 0.00 | 0.00 | 0.00 | 72 | 1007.6 |
| 20260505052105 | 51 | 19 | 0.0 | 0.0 | 0.00 | 0.00 | 0.00 | 73 | 1007.6 |
| 20260505051104 | 51 | 19 | 0.0 | 0.0 | 0.00 | 0.00 | 0.00 | 74 | 1007.6 |
| 20260505050104 | 52 | 19 | 0.0 | 0.0 | 0.00 | 0.00 | 0.00 | 73 | 1007.5 |
| 20260505041105 | 56 | 19 | 0.0 | 0.0 | 0.00 | 0.00 | 0.00 | 65 | 1006.9 |
| 20260505040604 | 57 | 19 | 0.0 | 0.0 | 0.00 | 0.00 | 0.00 | 61 | 1006.9 |
| 20260505035605 | 58 | 19 | 0.0 | 0.0 | 0.00 | 0.00 | 0.00 | 58 | 1006.7 |
| 20260505034104 | 61 | 19 | 0.0 | 0.0 | 0.00 | 0.00 | 0.00 | 55 | 1006.6 |
| 20260505032104 | 62 | 352 | 1.0 | 2.0 | 0.00 | 0.00 | 0.00 | 51 | 1006.3 |
| 20260505031605 | 62 | 323 | 0.0 | 2.0 | 0.00 | 0.00 | 0.00 | 52 | 1006.3 |
| 20260505030105 | 64 | 307 | 0.0 | 1.0 | 0.00 | 0.00 | 0.00 | 50 | 1006.2 |
| 20260505024605 | 66 | 107 | 0.0 | 1.0 | 0.00 | 0.00 | 0.00 | 47 | 1006.0 |
| 20260505024104 | 67 | 4 | 0.0 | 1.0 | 0.00 | 0.00 | 0.00 | 45 | 1005.8 |
| 20260505023604 | 68 | 345 | 0.0 | 1.0 | 0.00 | 0.00 | 0.00 | 44 | 1005.8 |
| 20260505022604 | 70 | 134 | 0.0 | 1.0 | 0.00 | 0.00 | 0.00 | 42 | 1005.8 |
| 20260505022105 | 71 | 112 | 0.0 | 2.0 | 0.00 | 0.00 | 0.00 | 41 | 1005.7 |
| 20260505020104 | 73 | 84 | 1.0 | 3.0 | 0.00 | 0.00 | 0.00 | 36 | 1005.7 |
| 20260505015105 | 74 | 61 | 1.0 | 3.0 | 0.00 | 0.00 | 0.00 | 35 | 1005.6 |
| 20260505014604 | 75 | 102 | 1.0 | 3.0 | 0.00 | 0.00 | 0.00 | 35 | 1005.6 |
| 20260505013604 | 76 | 195 | 1.0 | 3.0 | 0.00 | 0.00 | 0.00 | 34 | 1005.6 |
| 20260505013105 | 76 | 107 | 1.0 | 3.0 | 0.00 | 0.00 | 0.00 | 33 | 1005.7 |
| 20260505012105 | 76 | 269 | 0.0 | 3.0 | 0.00 | 0.00 | 0.00 | 36 | 1005.7 |
| 20260505011605 | 76 | 307 | 1.0 | 5.0 | 0.00 | 0.00 | 0.00 | 32 | 1005.7 |
| 20260505005104 | 77 | 147 | 1.0 | 9.0 | 0.00 | 0.00 | 0.00 | 33 | 1005.8 |
| 20260505003604 | 78 | 259 | 1.0 | 6.0 | 0.00 | 0.00 | 0.00 | 32 | 1005.9 |
| 20260505002605 | 78 | 195 | 1.0 | 3.0 | 0.00 | 0.00 | 0.00 | 32 | 1005.9 |
| 20260505002104 | 78 | 293 | 2.0 | 5.0 | 0.00 | 0.00 | 0.00 | 32 | 1006.0 |
| 20260505000104 | 78 | 318 | 2.0 | 10.0 | 0.00 | 0.00 | 0.00 | 34 | 1005.9 |
| 20260504235604 | 78 | 315 | 2.0 | 8.0 | 0.00 | 0.00 | 0.00 | 32 | 1005.9 |
| 20260504235104 | 78 | 287 | 3.0 | 8.0 | 0.00 | 0.00 | 0.00 | 33 | 1005.9 |
| 20260504233104 | 78 | 300 | 2.0 | 7.0 | 0.00 | 0.00 | 0.00 | 33 | 1005.8 |
| 20260504232104 | 77 | 291 | 2.0 | 7.0 | 0.00 | 0.00 | 0.00 | 35 | 1005.8 |
| 20260504231105 | 76 | 267 | 2.0 | 8.0 | 0.00 | 0.00 | 0.00 | 39 | 1005.9 |
| 20260504230605 | 76 | 287 | 3.0 | 8.0 | 0.00 | 0.00 | 0.00 | 39 | 1005.8 |
| 20260504230104 | 77 | 245 | 2.0 | 6.0 | 0.00 | 0.00 | 0.00 | 39 | 1005.8 |
| 20260504224104 | 77 | 294 | 3.0 | 6.0 | 0.00 | 0.00 | 0.00 | 35 | 1005.8 |
| 20260504223604 | 77 | 301 | 1.0 | 6.0 | 0.00 | 0.00 | 0.00 | 36 | 1005.8 |
| 20260504222104 | 77 | 9 | 2.0 | 8.0 | 0.00 | 0.00 | 0.00 | 38 | 1006.0 |
| 20260504221104 | 76 | 281 | 3.0 | 12.0 | 0.00 | 0.00 | 0.00 | 35 | 1006.1 |
| 20260504215104 | 76 | 282 | 3.0 | 8.0 | 0.00 | 0.00 | 0.00 | 36 | 1006.1 |
| 20260504214104 | 76 | 299 | 2.0 | 7.0 | 0.00 | 0.00 | 0.00 | 38 | 1006.1 |
| 20260504211604 | 75 | 301 | 2.0 | 3.0 | 0.00 | 0.00 | 0.00 | 40 | 1006.3 |
| 20260504210104 | 75 | 265 | 2.0 | 5.0 | 0.00 | 0.00 | 0.00 | 37 | 1006.3 |
| 20260504205104 | 75 | 284 | 3.0 | 8.0 | 0.00 | 0.00 | 0.00 | 38 | 1006.4 |
| 20260504204604 | 75 | 257 | 2.0 | 9.0 | 0.00 | 0.00 | 0.00 | 38 | 1006.5 |
| 20260504204104 | 74 | 241 | 4.0 | 9.0 | 0.00 | 0.00 | 0.00 | 39 | 1006.5 |
| 20260504203104 | 75 | 352 | 2.0 | 7.0 | 0.00 | 0.00 | 0.00 | 35 | 1006.6 |
| 20260504202604 | 74 | 267 | 2.0 | 7.0 | 0.00 | 0.00 | 0.00 | 36 | 1006.6 |
| 20260504201604 | 74 | 315 | 5.0 | 10.0 | 0.00 | 0.00 | 0.00 | 37 | 1006.7 |
| 20260504201104 | 74 | 251 | 1.0 | 8.0 | 0.00 | 0.00 | 0.00 | 36 | 1006.7 |
| 20260504200604 | 74 | 283 | 2.0 | 8.0 | 0.00 | 0.00 | 0.00 | 37 | 1006.7 |
| 20260504200104 | 74 | 309 | 2.0 | 5.0 | 0.00 | 0.00 | 0.00 | 38 | 1006.7 |
| 20260504195605 | 74 | 287 | 2.0 | 5.0 | 0.00 | 0.00 | 0.00 | 39 | 1006.6 |
| 20260504195105 | 74 | 288 | 1.0 | 6.0 | 0.00 | 0.00 | 0.00 | 40 | 1006.7 |
| 20260504194604 | 74 | 289 | 2.0 | 6.0 | 0.00 | 0.00 | 0.00 | 40 | 1006.8 |
| 20260504194104 | 74 | 279 | 1.0 | 5.0 | 0.00 | 0.00 | 0.00 | 37 | 1006.9 |
| 20260504193605 | 74 | 268 | 2.0 | 7.0 | 0.00 | 0.00 | 0.00 | 39 | 1006.8 |
| 20260504191604 | 72 | 223 | 3.0 | 7.0 | 0.00 | 0.00 | 0.00 | 42 | 1007.1 |
| 20260504185604 | 72 | 310 | 2.0 | 3.0 | 0.00 | 0.00 | 0.00 | 44 | 1007.1 |
| 20260504185104 | 72 | 268 | 2.0 | 3.0 | 0.00 | 0.00 | 0.00 | 43 | 1007.1 |
| 20260504184605 | 72 | 237 | 1.0 | 3.0 | 0.00 | 0.00 | 0.00 | 46 | 1007.2 |
| 20260504184104 | 72 | 257 | 0.0 | 3.0 | 0.00 | 0.00 | 0.00 | 45 | 1007.2 |
| 20260504181604 | 71 | 175 | 2.0 | 5.0 | 0.00 | 0.00 | 0.00 | 45 | 1007.2 |
| 20260504180104 | 69 | 107 | 2.0 | 6.0 | 0.00 | 0.00 | 0.00 | 45 | 1007.3 |
| 20260504174104 | 69 | 76 | 0.0 | 3.0 | 0.00 | 0.00 | 0.00 | 46 | 1007.4 |
| 20260504173604 | 69 | 58 | 2.0 | 3.0 | 0.00 | 0.00 | 0.00 | 45 | 1007.4 |
| 20260504173104 | 69 | 221 | 0.0 | 7.0 | 0.00 | 0.00 | 0.00 | 46 | 1007.4 |
| 20260504172604 | 68 | 196 | 1.0 | 7.0 | 0.00 | 0.00 | 0.00 | 46 | 1007.5 |
| 20260504172104 | 68 | 127 | 1.0 | 3.0 | 0.00 | 0.00 | 0.00 | 45 | 1007.4 |
| 20260504171604 | 68 | 195 | 0.0 | 3.0 | 0.00 | 0.00 | 0.00 | 46 | 1007.5 |
| 20260504150603 | 59 | 159 | 0.0 | 2.0 | 0.00 | 0.00 | 0.00 | 62 | 1007.5 |
| 20260504141104 | 54 | 144 | 0.0 | 1.0 | 0.00 | 0.00 | 0.00 | 68 | 1007.7 |
| 20260504130604 | 43 | 144 | 0.0 | 0.0 | 0.00 | 0.00 | 0.00 | 83 | 1007.4 |
| 20260504110606 | 43 | 139 | 0.0 | 0.0 | 0.00 | 0.00 | 0.00 | 83 | 1007.4 |
| 20260504110106 | 43 | 139 | 0.0 | 0.0 | 0.00 | 0.00 | 0.00 | 83 | 1007.5 |
| 20260504100606 | 43 | 172 | 0.0 | 0.0 | 0.00 | 0.00 | 0.00 | 85 | 1007.6 |
| 20260504100105 | 42 | 172 | 0.0 | 0.0 | 0.00 | 0.00 | 0.00 | 85 | 1007.6 |
| 20260504090105 | 44 | 172 | 0.0 | 0.0 | 0.00 | 0.00 | 0.00 | 83 | 1007.5 |
| 20260504081605 | 45 | 266 | 0.0 | 1.0 | 0.00 | 0.00 | 0.00 | 81 | 1007.9 |
| 20260504080605 | 45 | 266 | 0.0 | 0.0 | 0.00 | 0.00 | 0.00 | 82 | 1008.0 |
| 20260504080105 | 45 | 266 | 0.0 | 0.0 | 0.00 | 0.00 | 0.00 | 83 | 1007.9 |
| 20260504070106 | 44 | 266 | 0.0 | 0.0 | 0.00 | 0.00 | 0.00 | 86 | 1008.0 |